This demonstration page uses our WeatherBlox Daily Observations layout. Learn more.

Left ArrowRight Arrow

34.02893, -84.19858

Hourly Observations for May 7, 2015

Temp ( °F °C ) Dew Point ( °F °C ) Humidity (%) Winds ( mph kmh ) Pressure ( in mb ) Visibility ( mi km ) Precip ( " mm )
12:53 am 00:53 Clear 60 15.6 55 12.8 84 84 Calm 30.10 1019 8 13 0.00 0.00
1:53 am 01:53 Clear 57 13.9 54 12.2 90 90 Calm 30.10 1019 7 11 0.00 0.00
2:53 am 02:53 Clear 56 13.3 54 12.2 93 93 Calm 30.08 1019 7 11 0.00 0.00
3:53 am 03:53 Clear 56 13.3 53 11.7 90 90 NNE 3 6 30.08 1019 8 13 0.00 0.00
4:53 am 04:53 Clear 57 13.9 53 11.7 87 87 Calm 30.08 1019 7 11 0.00 0.00
5:53 am 05:53 Clear 56 13.3 53 11.7 90 90 Calm 30.08 1019 7 11 0.00 0.00
6:53 am 06:53 Sunny with Mist and Fog 55 12.8 53 11.7 93 93 N 3 6 30.10 1019 4 6 0.00 0.00
7:53 am 07:53 Sunny with Mist and Fog 62 16.7 58 14.4 86 86 Calm 30.12 1020 5 8 0.00 0.00
8:53 am 08:53 Hazy 69 20.6 58 14.4 68 68 N 3 6 30.12 1020 6 10 0.00 0.00
9:53 am 09:53 Sunny 75 23.9 55 12.8 50 50 NNE 5 7 30.13 1020 7 11 0.00 0.00
10:53 am 10:53 Sunny 78 25.6 55 12.8 45 45 N 6 9 30.12 1020 8 13 0.00 0.00
11:53 am 11:53 Sunny 81 27.2 56 13.3 42 42 VRB 6 9 30.12 1020 7 11 0.00 0.00
12:53 pm 12:53 Partly Cloudy 79 26.1 55 12.8 44 44 VRB 5 7 30.11 1020 7 11 0.00 0.00
1:53 pm 13:53 Mostly Sunny 83 28.3 56 13.3 40 40 NE 9 15 30.09 1019 7 11 0.00 0.00
2:53 pm 14:53 Mostly Sunny 83 28.3 56 13.3 40 40 VRB 3 6 30.08 1019 7 11 0.00 0.00
3:53 pm 15:53 Partly Cloudy 82 27.8 56 13.3 41 41 VRB 5 7 30.06 1018 7 11 0.00 0.00
4:53 pm 16:53 Mostly Sunny 84 28.9 54 12.2 36 36 E 7 11 30.04 1017 7 11 0.00 0.00
5:53 pm 17:53 Sunny 81 27.2 54 12.2 39 39 Calm 30.04 1017 7 11 0.00 0.00
6:53 pm 18:53 Sunny 81 27.2 55 12.8 41 41 Calm 30.04 1017 7 11 0.00 0.00
7:53 pm 19:53 Sunny 79 26.1 55 12.8 44 44 ESE 5 7 30.03 1017 7 11 0.00 0.00
8:53 pm 20:53 Clear 73 22.8 57 13.9 57 57 Calm 30.05 1018 8 13 0.00 0.00
9:53 pm 21:53 Clear 68 20 58 14.4 70 70 Calm 30.05 1018 8 13 0.00 0.00
10:53 pm 22:53 Clear 67 19.4 58 14.4 73 73 Calm 30.06 1018 8 13 0.00 0.00
11:53 pm 23:53 Clear 65 18.3 58 14.4 78 78 Calm 30.06 1018 7 11 0.00 0.00

Powered by AerisWeather